Flag for Iran Weather past 2 weeks in Esfahãn, Iran

Now
90 °F

Sunny.


Feels Like: 86 °F
Forecast: 52 / 92 °F
Wind: 7 mph from Northwest

Location: Esfahan

Current Time: Aug 29, 2014 at 3:04:00 PM

Latest Report: Aug 29, 2014 at 2:30 PM


Visibility: 10 mi

Pressure: 30.01 "Hg

Humidity: 7%

Dew point: 18 °F

Location of EsfahãnLocation

Historic Weather in Esfahãn — Graph

°F

Esfahãn temperature yesterday

Maximum temperature yesterday: 93 °F (at 3:30 PM)
Minimum temperature yesterday: 54 °F (at 5:00 AM)
Average temperature yesterday: 76 °F

Past Weeks' High & Low Weather Summary

 TemperatureHumidityPressure
High100 °F (Aug 14, 3:30 PM)49% (Aug 16, 4:30 AM)30.15 "Hg (Aug 16, 4:30 AM)
Low50 °F (Aug 29, 5:30 AM)5% (Aug 14, 4:30 PM)29.86 "Hg (Aug 16, 6:00 PM)
Average79 °F18%30.04 "Hg
* Reported Aug 14 1:30 PM — Aug 29 2:00 PM, Esfahãn, Weather by CustomWeather, © 2014

Note: Actual official high and low records may vary slightly from our data, if they occured in-between our weather recording intervals... More about our weather records

Advertising

Esfahãn weather history for previous 24 hours

 ConditionsComfort  
Time TempWeatherWind HumidityBarometerVisibility
2:00 PM
Aug 29
90 °FSunny.7 mph7%30.04 "Hg10 mi
1:30 PM88 °FSunny.5 mph7%30.04 "Hg10 mi
1:00 PM88 °FSunny.7 mph6%30.04 "Hg10 mi
12:30 PM86 °FSunny.7 mph8%30.07 "Hg10 mi
12:00 PM86 °FSunny.7 mph8%30.07 "Hg10 mi
11:30 AM84 °FSunny.5 mph8%30.07 "Hg10 mi
11:00 AM81 °FSunny.7 mph9%30.09 "Hg10 mi
10:30 AM79 °FSunny.7 mph11%30.09 "Hg10 mi
10:00 AM79 °FSunny.7 mph12%30.09 "Hg5 mi
9:30 AM73 °FSunny.7 mph19%30.09 "Hg4 mi
9:00 AM68 °FSunny.7 mph23%30.09 "Hg4 mi
8:30 AM64 °FSunny.5 mph22%30.09 "Hg4 mi
8:00 AM59 °FClear.5 mph27%30.07 "Hg3 mi
7:30 AM55 °FClear.No wind36%30.07 "Hg3 mi
7:00 AM57 °FClear.No wind33%30.07 "Hg2 mi
6:30 AM55 °FClear.No wind21%30.07 "Hg2 mi
6:00 AM52 °FClear.7 mph38%30.04 "Hg4 mi
5:30 AM50 °FClear.No wind32%30.04 "Hg4 mi
5:00 AM55 °FClear.No wind24%30.04 "Hg10 mi
4:30 AM52 °FClear.No wind24%30.04 "Hg10 mi
4:00 AM57 °FClear.No wind21%30.04 "Hg10 mi
3:30 AM59 °FClear.No wind23%30.04 "Hg10 mi
3:00 AM63 °FClear.No wind19%30.04 "Hg10 mi
2:30 AM63 °FClear.No wind20%30.04 "Hg10 mi
2:00 AM61 °FClear.No wind22%30.04 "Hg10 mi
1:30 AM64 °FClear.No wind16%30.04 "Hg10 mi
1:00 AM72 °FClear.5 mph13%30.04 "Hg10 mi
12:30 AM73 °FClear.5 mph12%30.04 "Hg10 mi
12:00 AM73 °FClear.7 mph13%30.04 "Hg10 mi
11:00 PM
Aug 28
73 °FClear.9 mph14%30.04 "Hg10 mi
10:30 PM75 °FClear.5 mph12%30.04 "Hg10 mi
10:00 PM77 °FClear.5 mph11%30.01 "Hg10 mi
9:30 PM77 °FClear.9 mph10%30.01 "Hg10 mi
9:00 PM81 °FSunny.14 mph9%30.01 "Hg10 mi
8:30 PM82 °FSunny.14 mph8%29.98 "Hg10 mi
8:00 PM82 °FSunny.12 mph9%29.98 "Hg10 mi
7:30 PM86 °FSunny.12 mph8%29.98 "Hg10 mi
7:00 PM88 °FSunny.12 mph7%29.98 "Hg10 mi
6:30 PM90 °FSunny.12 mph7%29.98 "Hg10 mi
6:00 PM91 °FPassing clouds.7 mph7%29.98 "HgN/A
5:30 PM91 °FPassing clouds.7 mph6%29.98 "HgN/A
5:00 PM91 °FSunny.7 mph7%29.98 "Hg10 mi
4:00 PM91 °FSunny.7 mph8%29.98 "Hg10 mi
3:30 PM93 °FSunny.12 mph8%29.98 "Hg10 mi
3:00 PM91 °FPassing clouds.14 mph9%29.98 "HgN/A
Weather by CustomWeather, © 2014

See weather overviewHow to use our weather pages